"Pseudo-MPEC" for P11Oj9t

Created 2023 Nov 21 13:22:08 UT using Find_Orb

Click here for an explanation of pseudo-MPECs

 
 Astrometry: 
     P11Oj9t* C2023 11 18qL16F9!Jw%/fuY3!aep.LV4(I3ie`w7K37eiaHK\C*pDk[nSAc4#F51
     P11Oj9t  C2023 11 182!l9fSjWX#HCFd`n5vk?ljdN^=(Yp\mqAstrometryO`]\Pn:-8.F51
     P11Oj9t  C2023 11 18RV;NH4AlxI*oQdPGFwO]Uegredacted;IZNer\lJ9aR;vM-Nv7DMF51
     P11Oj9t |C2023 11 19!NNKF+b!qO$+#j#:6'SQ3nMaUV]lTeH(9$S`co;4x@?UdBo#H+7p807
     P11Oj9t |C2023 11 193x%i[LCtK:RXT;'oP%5oZSlP-IR9`#L8(;tT8N(=h4uvPVlZ[[);807
     P11Oj9t |C2023 11 195ukclickBEx5_!ax)VL8nt1C/`?9p1sQGm6R82QjHjk/hO@nAho;807
     P11Oj9t KC2023 11 19T8JnWceC6DmcZyVl*Fnt8XcAx1bf#@r(5*ETM\pK)4+(jQ26F`($H21
     P11Oj9t KC2023 11 19#IV5eB;i=4K,p`E,0JiD/K4`]K`x-!Wt6BqReh@jt8a47GDakCpWH21
     P11Oj9t KC2023 11 190T\KRjiS!jC5vc#SQ.n?Epc`a`0#r@1Tkcx5qySawh]`ESmP;bo:H21
     P11Oj9t KC2023 11 19X2ssdvk*byPKherexeBQr](:th_'6iBx^\0J6)CY4_AhiGf.Cq'@H21
     P11Oj9t  C2023 11 19!BY)XHK0`b@0R#.S7BlXd5YPC#I*C+DhW$ngdV.N.e\;Ya5CvnNsF52
     P11Oj9t  C2023 11 19qPB!,?aPAO-yCO=S7l(1%asn_IbgCZq?5#_v-ZoZ#Dw1[CM7^pA1F52
     P11Oj9t KC2023 11 21d[Mm$-dCvA(MOcSDw0BNu#rHnxforae?rO-G1cf/`-kg6Tt4+*VZ474
     P11Oj9t KC2023 11 213,((*Cm#vW#y%5EDVR5CCD=W)4c\!o)SbP1XMh[mexplanationJ474
     P11Oj9t KC2023 11 21B8HSE8vh6nE?J3),5RJr,fI=xv+ZVS^RE-+DE\2[P2Ty]`4jd-vQ474

Station data:
(474) Mount John Observatory, Lake Tekapo  (S43.987385 E170.464960)  New
   Zealand.  Observers A. C. Gilmore, P. M. Kilmartin. Measurer P. M.
   Kilmartin. 1.0-m f/7.7 reflector + CCD.
(807) Cerro Tololo Observatory, La Serena  (S30.169133 W70.805900)  Chile.
   Observer R. Holmes. 0.61-m f/6.5 astrograph + CCD.
(F51) Pan-STARRS 1, Haleakala  (N20.707234 W156.255910)  US/Hawaii.
   Observers J. Bulger, T. Lowe, A. Schultz, M. Willman. Measurers K.
   Chambers, S. Chastel, T. de Boer, L. Denneau, J. Fairlamb, H. Flewelling,
   M. Huber, C.-C. Lin, E. Magnier, Y. Ramanjooloo, R. Wainscoat, R. Weryk.
   1.8-m Ritchey-Chrétien + CCD.
(F52) Pan-STARRS 2, Haleakala  (N20.707382 W156.255910)  US/Hawaii.
   Observers J. Bulger, T. Dukes, T. Lowe, A. Schultz, M. Willman. Measurers
   K. Chambers, S. Chastel, T. de Boer, L. Denneau, J. Fairlamb, H.
   Flewelling, M. Huber, C.-C. Lin, E. Magnier, Y. Ramanjooloo, R. Wainscoat,
   R. Weryk. 1.8-m Ritchey-Chrétien + CCD.
(H21) Astronomical Research Observatory, Westfield  (N39.483054 W87.968270)
   US/Illinois.  Observer R. Holmes. Measurers S. Foglia, L. Buzzi, T.
   Linder, R. Holmes. 0.76-m f/3.0 astrograph + CCD0.81-m f/4.0 astrograph +
   CCD0.61-m f/4.5 astrograph + CCD0.40-m f/5.32 astrograph + CCD.

Orbital elements:  P11Oj9t
   Perihelion 2024 Feb 4.53890 +/- 0.145 TT = 12:56:01 (JD 2460345.03890)
Epoch 2023 Nov 21.0 TT = JDT 2460269.5   Earth MOID: 0.0698      AutoNEOCP
M 308.16344192 +/- 0.34             (J2000 ecliptic)
n   0.68622332 +/- 0.00325          Peri.   85.77593 +/- 0.12
a   1.27299217 +/- 0.00401          Node    62.85077 +/- 0.017
e   0.3615447 +/- 0.00215           Incl.   24.93874 +/- 0.13
P   1.44/524.60d           H 23.73  G  0.15   U  8.9
q 0.81274856 +/- 0.000174    Q 1.73323577 +/- 0.0082
From 15 observations 2023 Nov. 18-21; mean residual 0".27
Residuals in arcseconds: 
231118 F51  .04+  .06-    231119 807  .20-  .16+    231119 F52  .38+  .12-    
231118 F51  .08+  .05-    231119 H21  .25+  .12+    231119 F52  .13-  .15+    
231118 F51  .12-  .02+    231119 H21  .17+  .18+    231121 474  .16+  .06-    
231119 807  .62-  .09+    231119 H21  .05-  .27-    231121 474  .06-  .11+    
231119 807  1.0-  .21+    231119 H21  .14+  .00     231121 474  .27-  .23-    

Ephemerides (geocentric):
Date (UTC) HH   RA             Dec           delta  r     elong  mag " sig PA
---- --------  ------------   ------------  ------ ------ -----  --- --------
2023 11 21 13  03 11 25.923   -04 34 43.85  .14864 1.1236 154.2 20.9 .167 137
2023 11 21 14  03 11 06.321   -04 31 06.80  .14838 1.1233 154.2 20.9 .178 136
2023 11 21 15  03 10 46.654   -04 27 28.84  .14811 1.1231 154.2 20.9 .189 134
2023 11 21 16  03 10 26.922   -04 23 49.96  .14785 1.1229 154.2 20.9 .201 133
2023 11 21 17  03 10 07.126   -04 20 10.18  .14758 1.1226 154.2 20.9 .212 132
2023 11 21 18  03 09 47.264   -04 16 29.47  .14732 1.1224 154.2 20.9 .225 131
2023 11 21 19  03 09 27.338   -04 12 47.85  .14706 1.1221 154.2 20.9 .237 130
2023 11 21 20  03 09 07.345   -04 09 05.31  .14679 1.1219 154.2 20.9 .250 129
2023 11 21 21  03 08 47.287   -04 05 21.84  .14653 1.1216 154.2 20.9 .264 129
2023 11 21 22  03 08 27.163   -04 01 37.45  .14627 1.1214 154.2 20.9 .278 128
2023 11 21 23  03 08 06.973   -03 57 52.13  .14601 1.1211 154.2 20.9 .292 127
2023 11 22 00  03 07 46.716   -03 54 05.88  .14575 1.1209 154.2 20.9 .307 127
2023 11 22 01  03 07 26.394   -03 50 18.69  .14549 1.1206 154.2 20.9 .322 126
2023 11 22 02  03 07 06.004   -03 46 30.57  .14523 1.1204 154.2 20.9 .337 125
2023 11 22 03  03 06 45.547   -03 42 41.51  .14497 1.1201 154.2 20.9 .353 125
2023 11 22 04  03 06 25.024   -03 38 51.50  .14472 1.1199 154.2 20.9 .369 124
2023 11 22 05  03 06 04.433   -03 35 00.56  .14446 1.1197 154.2 20.9 .386 124
2023 11 22 06  03 05 43.774   -03 31 08.66  .14420 1.1194 154.2 20.9 .403 123
2023 11 22 07  03 05 23.048   -03 27 15.82  .14395 1.1192 154.2 20.8 .420 123
2023 11 22 08  03 05 02.254   -03 23 22.03  .14369 1.1189 154.2 20.8 .438 122
2023 11 22 09  03 04 41.392   -03 19 27.29  .14344 1.1187 154.2 20.8 .456 122
2023 11 22 10  03 04 20.462   -03 15 31.59  .14318 1.1184 154.2 20.8 .475 122
2023 11 22 11  03 03 59.463   -03 11 34.93  .14293 1.1182 154.2 20.8 .494 121
2023 11 22 12  03 03 38.395   -03 07 37.31  .14268 1.1179 154.2 20.8 .514 121
2023 11 22 13  03 03 17.259   -03 03 38.73  .14242 1.1177 154.2 20.8 .534 120
2023 11 22 14  03 02 56.054   -02 59 39.19  .14217 1.1174 154.2 20.8 .554 120
2023 11 22 15  03 02 34.779   -02 55 38.68  .14192 1.1172 154.2 20.8 .575 120
2023 11 22 16  03 02 13.435   -02 51 37.20  .14167 1.1169 154.2 20.8 .597 120
2023 11 22 17  03 01 52.021   -02 47 34.75  .14142 1.1167 154.2 20.8 .619 119
2023 11 22 18  03 01 30.537   -02 43 31.32  .14117 1.1165 154.2 20.8 .641 119
2023 11 22 19  03 01 08.983   -02 39 26.92  .14092 1.1162 154.2 20.8 .664 119
2023 11 22 20  03 00 47.359   -02 35 21.55  .14068 1.1160 154.2 20.8 .687 118
2023 11 22 21  03 00 25.664   -02 31 15.19  .14043 1.1157 154.1 20.8 .711 118
2023 11 22 22  03 00 03.899   -02 27 07.85  .14018 1.1155 154.1 20.8 .735 118
2023 11 22 23  02 59 42.063   -02 22 59.53  .13994 1.1152 154.1 20.8 .760 118
2023 11 23 00  02 59 20.156   -02 18 50.22  .13969 1.1150 154.1 20.8 .785 118
2023 11 23 01  02 58 58.178   -02 14 39.93  .13945 1.1147 154.1 20.8 .811 117
2023 11 23 02  02 58 36.128   -02 10 28.65  .13920 1.1145 154.1 20.8 .837 117
2023 11 23 03  02 58 14.006   -02 06 16.37  .13896 1.1142 154.1 20.8 .864 117
2023 11 23 04  02 57 51.813   -02 02 03.10  .13872 1.1140 154.1 20.8 .891 117
2023 11 23 05  02 57 29.548   -01 57 48.84  .13847 1.1137 154.0 20.8 .918 117
2023 11 23 06  02 57 07.210   -01 53 33.58  .13823 1.1135 154.0 20.8 .947 116
2023 11 23 07  02 56 44.800   -01 49 17.32  .13799 1.1133 154.0 20.8 .975 116
2023 11 23 08  02 56 22.317   -01 45 00.06  .13775 1.1130 154.0 20.7 1.00 116
2023 11 23 09  02 55 59.762   -01 40 41.80  .13751 1.1128 154.0 20.7 1.03 116
2023 11 23 10  02 55 37.134   -01 36 22.53  .13727 1.1125 154.0 20.7 1.06 116
2023 11 23 11  02 55 14.432   -01 32 02.26  .13704 1.1123 153.9 20.7 1.10 116
2023 11 23 12  02 54 51.657   -01 27 40.98  .13680 1.1120 153.9 20.7 1.13 116